Weather History for KBVU - April, 2014

Change the Weather History Date:

Friday, April 11, 2014

  Actual Average (KLAS) Record (KLAS)
Temperature  
Mean Temperature 76 °F 66 °F  
Max Temperature 91 °F 77 °F 92 °F (2014)
Min Temperature 62 °F 55 °F 35 °F (1965)
Degree Days  
Heating Degree Days 0 3  
Month to date heating degree days 36  
Since 1 July heating degree days 1916  
Cooling Degree Days 12 3  
Month to date cooling degree days 28  
Year to date cooling degree days 59  
Growing Degree Days 26 (Base 50)    
Moisture  
Dew Point 14 °F    
Average Humidity 11    
Maximum Humidity 26    
Minimum Humidity 4    
Precipitation  
Precipitation 0.00 in 0.01 in 0.88 in (1941)
Month to date precipitation 0.08  
Year to date precipitation 1.82  
Snow  
Snow 0.00 in 0.00 in 0.00 in ()
Month to date snowfall 0.0  
Since 1 July snowfall 0.3  
Snow Depth -    
Sea Level Pressure  
Sea Level Pressure 29.84 in    
Wind  
Wind Speed 5 mph (SSE)    
Max Wind Speed 21 mph    
Max Gust Speed 36 mph    
Visibility 10 miles    
Events Thunderstorm    
T = Trace of Precipitation, MM = Missing Value Source: NWS Daily Summary

Daily Weather History Graph

Daily Weather History Graph

Search for Another Location

Airport or City:

Trip Planner

Search our weather history database for the weather conditions in past years. The results will help you decide how hot, cold, wet, or windy it might be!

Date:

Astronomy

Apr. 11, 2014 Rise Set
Actual Time 6:11 AM PDT 7:09 PM PDT
Civil Twilight 5:45 AM PDT 7:35 PM PDT
Nautical Twilight 5:14 AM PDT 8:07 PM PDT
Astronomical Twilight 4:42 AM PDT 8:39 PM PDT
Moon 4:00 PM PDT (4/11) 4:02 AM PDT (4/11)
Length of Visible Light 13h 50m
Length of Day
12h 58m
Waxing Gibbous, 87% of the Moon is Illuminated
Apr 11
Waxing Gibbous
Apr 15
Full
Apr 22
Last Quarter
Apr 28
New
May 6
First Quarter

Hourly Weather History & Observations

Time (PDT) Temp. Dew Point Humidity Pressure Visibility Wind Dir Wind Speed Gust Speed Precip Events Conditions
12:15 AM 68.0 °F 15.8 °F 13% 29.90 in 10.0 mi NW 3.5 mph - N/A   Clear
12:35 AM 66.2 °F 17.6 °F 15% 29.90 in 10.0 mi Calm Calm - N/A   Clear
12:55 AM 64.4 °F 14.0 °F 14% 29.90 in 10.0 mi Calm Calm - N/A Thunderstorm Clear
1:15 AM 68.0 °F 12.2 °F 12% 29.90 in 10.0 mi Calm Calm - N/A Thunderstorm Clear
1:35 AM 66.2 °F 17.6 °F 15% 29.90 in 10.0 mi NNW 4.6 mph - N/A   Clear
1:55 AM 64.4 °F 21.2 °F 19% 29.89 in - Calm Calm - N/A   Clear
2:15 AM 62.6 °F 24.8 °F 24% 29.89 in 10.0 mi North 3.5 mph - N/A   Clear
2:35 AM 62.6 °F 19.4 °F 19% 29.89 in 10.0 mi NNW 3.5 mph - N/A   Clear
2:55 AM 64.4 °F 17.6 °F 16% 29.89 in 10.0 mi North 3.5 mph - N/A   Clear
3:15 AM 66.2 °F 17.6 °F 15% 29.88 in 10.0 mi NW 3.5 mph - N/A   Clear
3:35 AM 66.2 °F 17.6 °F 15% 29.88 in 10.0 mi Calm Calm - N/A   Clear
3:55 AM 64.4 °F 21.2 °F 19% 29.88 in 10.0 mi Calm Calm - N/A   Clear
4:15 AM 62.6 °F 26.6 °F 26% 29.88 in 10.0 mi NE 4.6 mph - N/A   Clear
4:35 AM 62.6 °F 21.2 °F 20% 29.88 in 10.0 mi NNE 5.8 mph - N/A Thunderstorm Clear
4:55 AM 64.4 °F 14.0 °F 14% 29.88 in 10.0 mi North 4.6 mph - N/A   Clear
5:15 AM 64.4 °F 21.2 °F 19% 29.88 in 10.0 mi NE 3.5 mph - N/A   Clear
5:55 AM 66.2 °F 12.2 °F 12% 29.89 in 10.0 mi East 6.9 mph - N/A   Clear
6:15 AM 66.2 °F 14.0 °F 13% 29.89 in 10.0 mi ENE 6.9 mph - N/A   Clear
6:35 AM 64.4 °F 17.6 °F 16% 29.89 in 10.0 mi NE 4.6 mph - N/A   Clear
6:55 AM 64.4 °F 19.4 °F 18% 29.90 in 10.0 mi NE 5.8 mph - N/A   Clear
7:15 AM 66.2 °F 21.2 °F 18% 29.91 in 10.0 mi Calm Calm - N/A   Clear
7:35 AM 64.4 °F 23.0 °F 21% 29.91 in 10.0 mi North 3.5 mph - N/A   Clear
7:55 AM 71.6 °F 23.0 °F 16% 29.91 in 10.0 mi Calm Calm - N/A   Clear
8:15 AM 75.2 °F 12.2 °F 9% 29.92 in 10.0 mi Calm Calm - N/A   Clear
8:35 AM 77.0 °F 8.6 °F 7% 29.91 in 10.0 mi Calm Calm - N/A   Clear
8:55 AM 77.0 °F 3.2 °F 6% 29.92 in 10.0 mi SSE 4.6 mph - N/A   Clear
9:15 AM 78.8 °F 5.0 °F 6% 29.92 in 10.0 mi Variable 5.8 mph - N/A   Clear
9:35 AM 78.8 °F 5.0 °F 6% 29.92 in 10.0 mi Variable 3.5 mph - N/A   Clear
9:55 AM 80.6 °F 5.0 °F 6% 29.92 in 10.0 mi SSE 4.6 mph - N/A   Clear
10:15 AM 80.6 °F 6.8 °F 6% 29.92 in 10.0 mi SSE 5.8 mph - N/A   Clear
10:35 AM 82.4 °F 6.8 °F 6% 29.92 in 10.0 mi Calm Calm - N/A Thunderstorm Clear
10:55 AM 82.4 °F 6.8 °F 6% 29.92 in 10.0 mi Variable 3.5 mph - N/A   Clear
11:15 AM 84.2 °F 6.8 °F 5% 29.91 in 10.0 mi NE 5.8 mph 13.8 mph N/A   Clear
11:35 AM 84.2 °F 6.8 °F 5% 29.91 in 10.0 mi ESE 11.5 mph - N/A   Clear
11:55 AM 86.0 °F 10.4 °F 6% 29.89 in 10.0 mi ENE 8.1 mph 15.0 mph N/A Thunderstorm Clear
12:15 PM 87.8 °F 5.0 °F 4% 29.88 in 10.0 mi SE 16.1 mph - N/A   Clear
12:35 PM 87.8 °F 5.0 °F 4% 29.88 in 10.0 mi SSE 6.9 mph 15.0 mph N/A   Clear
12:55 PM 87.8 °F 6.8 °F 5% 29.86 in 10.0 mi SE 13.8 mph - N/A   Clear
1:15 PM 89.6 °F 6.8 °F 4% 29.86 in 10.0 mi SSE 15.0 mph - N/A   Partly Cloudy
1:35 PM 87.8 °F 6.8 °F 5% 29.84 in 10.0 mi SE 8.1 mph 17.3 mph N/A   Clear
1:55 PM 89.6 °F 6.8 °F 4% 29.84 in 10.0 mi SSE 8.1 mph 25.3 mph N/A   Partly Cloudy
2:15 PM 91.4 °F 6.8 °F 4% 29.82 in 10.0 mi South 17.3 mph 24.2 mph N/A   Clear
2:35 PM 91.4 °F 6.8 °F 4% 29.81 in 10.0 mi SSE 16.1 mph 24.2 mph N/A   Clear
2:55 PM 91.4 °F 6.8 °F 4% 29.80 in 10.0 mi SSE 19.6 mph - N/A   Clear
3:15 PM 89.6 °F 8.6 °F 5% 29.78 in 10.0 mi South 10.4 mph 33.4 mph N/A   Partly Cloudy
3:35 PM 91.4 °F 12.2 °F 5% 29.77 in 10.0 mi South 18.4 mph - N/A   Clear
3:55 PM 91.4 °F 10.4 °F 5% 29.77 in 10.0 mi SSE 15.0 mph 23.0 mph N/A Thunderstorm Clear
4:15 PM 89.6 °F 10.4 °F 5% 29.76 in 10.0 mi South 5.8 mph 13.8 mph N/A   Clear
4:35 PM 89.6 °F 10.4 °F 5% 29.75 in 10.0 mi SSW 13.8 mph 19.6 mph N/A   Partly Cloudy
4:55 PM 89.6 °F 12.2 °F 6% 29.75 in 10.0 mi WSW 11.5 mph 18.4 mph N/A   Clear
5:15 PM 89.6 °F 15.8 °F 7% 29.75 in 10.0 mi South 20.7 mph 27.6 mph N/A   Clear
5:35 PM 87.8 °F 17.6 °F 8% 29.75 in 10.0 mi South 15.0 mph 25.3 mph N/A   Clear
5:55 PM 87.8 °F 17.6 °F 8% 29.75 in 10.0 mi SSW 15.0 mph - N/A   Clear
6:15 PM 87.8 °F 15.8 °F 7% 29.74 in 10.0 mi South 12.7 mph - N/A   Clear
6:35 PM 86.0 °F 15.8 °F 7% 29.74 in 10.0 mi South 9.2 mph - N/A   Clear
6:55 PM 86.0 °F 17.6 °F 8% 29.74 in 10.0 mi South 5.8 mph 35.7 mph N/A Thunderstorm Partly Cloudy
7:15 PM 84.2 °F 17.6 °F 8% 29.74 in 10.0 mi South 12.7 mph - N/A   Clear
7:35 PM 84.2 °F 17.6 °F 8% 29.75 in - South 10.4 mph - N/A Thunderstorm Thunderstorm
7:55 PM 82.4 °F 15.8 °F 8% 29.76 in 10.0 mi SSW 10.4 mph - N/A   Clear
8:15 PM 82.4 °F 14.0 °F 8% 29.76 in 10.0 mi SSW 8.1 mph - N/A   Clear
8:35 PM 80.6 °F 12.2 °F 8% 29.76 in 10.0 mi West 4.6 mph 11.5 mph N/A   Clear
8:55 PM 80.6 °F 12.2 °F 8% 29.77 in 10.0 mi West 5.8 mph 12.7 mph N/A   Clear
9:15 PM 77.0 °F 14.0 °F 9% 29.77 in 10.0 mi Calm Calm - N/A   Clear
9:35 PM 73.4 °F 30.2 °F 20% 29.77 in 10.0 mi NNE 3.5 mph - N/A   Clear
9:55 PM 71.6 °F 23.0 °F 16% 29.77 in 10.0 mi NNW 5.8 mph - N/A Thunderstorm Clear
10:15 PM 71.6 °F 24.8 °F 17% 29.76 in 10.0 mi Calm Calm - N/A   Clear
10:35 PM 69.8 °F 30.2 °F 23% 29.76 in 10.0 mi ENE 3.5 mph - N/A   Clear
10:55 PM 71.6 °F 21.2 °F 15% 29.76 in 10.0 mi SE 3.5 mph - N/A   Clear
11:15 PM 77.0 °F 8.6 °F 7% 29.76 in 10.0 mi SSW 6.9 mph - N/A   Clear
11:35 PM 75.2 °F 8.6 °F 8% 29.76 in 10.0 mi SW 5.8 mph - N/A   Clear
11:55 PM 73.4 °F 6.8 °F 8% 29.76 in 10.0 mi SSW 3.5 mph - N/A   Clear